Showing default

COSMOS 2269, 23000

Orbit data source: Space-Track

COSMOS 2269, 23000 is a payload satellite owned by VKS (CIS) in LEO that was launched on Sat, 12 Feb 1994 UTC via a TSIKLON-3 launch vehicle from the Plesetsk Missile And Space Complex (PKMTR). Payloads include a variety of satellites, spacecraft, and rockets equipped with specific instruments for various scientific and technological missions. These include communications satellites like Starlink; space stations such as the ISS; scientific satellites like the Hubble; Earth observation satellites from companies like Planet Labs, Umbra, and HawkEye 360; GPS; miniature CubeSats for education and research; and military/defense satellites.

Loading next visibility...
COSMOS 2269 details
Identifier
23000, 1994-011B
Orbit
LEO
Last TLE update20 hours ago
Origin
Flag of CISVKS (CIS)
ManufacturerNPO PM
MissionDefense Communications
Bus & MotorSTRELA-3, Unknown motor
Mass225 kg wet, 225 kg dry
Launch date (UTC)
1994-02-12 (31 years ago)
Launch vehicle
TSIKLON-3
Launch site
Plesetsk Missile And Space Complex (PKMTR)
Object type
Payload
Rocket body
Debris
Shape & HBRCyl, 1.6 m
Radar Cross Section1.257 m², Large (>1 m²)

Expand to show TLE details & history

TLE from 20 hours ago
0 COSMOS 2269
1 23000U 94011B   25035.46994892  .00000017  00000-0  35561-4 0  9998
2 23000  82.5661 278.9206 0006179 235.3562 299.1866 12.61927015427062
Epoch: 2025-02-04T11:16Z
Definitive object data (Epoch: 2025-02-04T11:16:43.586Z)
Latitude5.39515°
Longitude154.16164°
Altitude1,414.847 km
Speed7.155 km/s
True Right ascension06h 32m 52s
True Declination5° 21' 57"
Sunlit
Object was in full shadow at TLE epoch
Visualization TLE readout
Latitude-53.71121°
Longitude-35.84525°
Altitude1,434.32 km
Speed7.144 km/s
Apparent Right ascension19h 30m 22s
Apparent Declination-49° 50' 32"
Sunlit
Object is in daylight
Visualization observer readout
Local Sidereal Time09:02:17
Azimuth129.185° SE
Elevation-71.047°
Doppler factor1
Orbital elements
Apogee altitude1,417.136 km
Perigee altitude1,407.509 km
Semi-major axis7,790.459 km
Eccentricity0.0006179
Inclination82.5661°
RAAN278.9206°
Arg. of periapsis235.3562°
True anomaly299.12476°
Mean anomaly299.1866°
Eccentric anomaly299.15568°
Mean motion3.15645 °/min
BSTAR0.000035561
Orbital period114.05 mins
Loading maneuver chart data...
Loading historical data...
Loading historical data...
Loading historical data...
Loading historical data...
Loading historical data...
Loading historical data...
Loading historical data...

COSMOS 2269 Visibility forecast

Observer location: undefined°, undefined

Span
Click to sort rows by Start time (UTC) header in descending order
Start Az.
Max El. time (UTC)
Max El. Az.
Max El.
End time (UTC)
End Az.
10 mins2025-02-05 15:02:01.544Z116.703° SE2025-02-05 15:07:01.544Z78.183° E17.794°2025-02-05 15:12:01.544Z40.144° NE
15 mins2025-02-05 16:54:01.544Z189.949° SSW2025-02-05 17:01:01.544Z293.547° NW44.732°2025-02-05 17:09:01.544Z6.044° NNE
7 mins2025-02-05 18:54:01.544Z272.686° WNW2025-02-05 18:57:01.544Z295.996° NW15.277°2025-02-05 19:01:01.544Z326.929° NNW
14 mins2025-02-06 02:56:01.544Z10.009° NNE2025-02-06 03:03:01.544Z82.199° E33.121°2025-02-06 03:10:01.544Z141.508° SSE
14 mins2025-02-06 04:51:01.544Z334.785° NNW2025-02-06 04:57:01.544Z280.544° WNW33.003°2025-02-06 05:05:01.544Z207.233° SW
|